This is the latest recevied weather packets stored in our database for station/object N6HGA-1. If no packets are shown the sender has not sent any weather packets the latest 10 day(s).
| Time | Temp. | Humidity | Pressure | Rain* | Wind** | Luminosity | Snow |
|---|---|---|---|---|---|---|---|
| 1777059147 | 21.67° C | 50% | - | 0 mm | - | - | - |
| 1777058544 | 22.22° C | 46% | - | 0 mm | - | - | - |
| 1777058244 | 21.67° C | 41% | - | 0 mm | - | - | - |
| 1777057944 | 21.67° C | 52% | - | 0 mm | - | - | - |
| 1777057643 | 21.67° C | 52% | - | 0 mm | - | - | - |
| 1777057343 | 21.67° C | 52% | - | 0 mm | - | - | - |
| 1777057043 | 21.11° C | 54% | - | 0 mm | - | - | - |
| 1777056742 | 21.11° C | 54% | - | 0 mm | - | - | - |
| 1777056442 | 20.56° C | 56% | - | 0 mm | - | - | - |
| 1777056142 | 21.11° C | 55% | - | 0 mm | - | - | - |
| 1777055541 | 21.11° C | 55% | - | 0 mm | - | - | - |
| 1777055241 | 21.11° C | 55% | - | 0 mm | - | - | - |
| 1777054636 | 21.67° C | 51% | - | 0 mm | - | - | - |
| 1777054336 | 21.67° C | 34% | - | 0 mm | - | - | - |
| 1777053736 | 21.11° C | 36% | - | 0 mm | - | - | - |
| 1777053435 | 21.11° C | 33% | - | 0 mm | - | - | - |
| 1777053135 | 21.11° C | 36% | - | 0 mm | - | - | - |
| 1777052835 | 20.56° C | 52% | - | 0 mm | - | - | - |
| 1777052534 | 20.56° C | 56% | - | 0 mm | - | - | - |
| 1777052234 | 20.56° C | 55% | - | 0 mm | - | - | - |
| 1777051932 | 20° C | 58% | - | 0 mm | - | - | - |
| 1777051632 | 20° C | 58% | - | 0 mm | - | - | - |
| 1777051332 | 20° C | 60% | - | 0 mm | - | - | - |
| 1777051031 | 19.44° C | 61% | - | 0 mm | - | - | - |
| 1777050731 | 19.44° C | 61% | - | 0 mm | - | - | - |
* Rain since midnight (hover to see other rain measurements)
** Current wind speed in m/s (hover to see current wind gust speed)